Location: Newark
(48.1281°N, 2.1556°W)
Time: 16:20:17
(UTC+00:00)

Envisat - Pass Details

Date: 23 November 2019
Orbit: 764 x 766 km, 98.1° (Epoch: 15 December)

Event Time Altitude Azimuth Distance (km) Brightness Sun altitude
Rises 06:49:19 0° 16° (NNE) 3,244 6.2 -6.4°
Reaches altitude 10° 06:51:41 10° 20° (NNE) 2,313 5.5 -6.0°
Maximum altitude 06:56:43 60° 101° (E) 876 3.7 -5.2°
Drops below altitude 10° 07:01:43 10° 181° (S) 2,295 5.8 -4.5°
Sets 07:04:02 0° 185° (S) 3,216 6.5 -4.1°
